Meteopurmerend
purmerend
Purmerend - Baaienwijk



My webcam  My webcam


waarschuwing voor Onweer Meer informatie blitzortung!


Regen radar Meer informatie rain snow radar


Bezoek onze andere website:

CandyAppleRed WebdesignWebdesign Purmerend Candy Apple Red

MeteopurmerendBlog

Template documentation
and downloads



Onweer van: 19-06-2019 18:00 tot: 23:00 waarschuwing voor: Onweer niveau: Geel info button
Enkele onweersbuien, mogelijk met hagel en windstoten tot ca. 75 km/uur.Verkeer en buitenactiviteiten kunnen hinder ondervinden.Mijd open water en open gebied, schuil niet onder bomen.Volg weerberichten en waarschuwingen.

15 daagse weersverwachting Linz (AT)

  • Overzicht
  • Per uur
  • 15 dagen
  • Extra
  • Vergelijk
  • Kaarten
  • Dagkaart
  • Meer »
  • Info
  • Statistieken
  • Directe link
    Temp 6h Neerslag Wind  
 05:03     21:07    Daglengte: 16:04 Vandaag
20:00
26°
 
1
 05:03     21:07    Daglengte: 16:04 Morgen
02:00
20°
 
1
08:00
21°
 
1
14:00
29°
 
2
20:00
24°
1.6 mm
3
 05:03     21:07    Daglengte: 16:04 Vrijdag 21 Jun
02:00
19°
1.7 mm
2
08:00
20°
2.2 mm
2
14:00
25°
 
2
20:00
21°
1.1 mm
2
 05:03     21:07    Daglengte: 16:04 Zaterdag 22 Jun
02:00
17°
 
1
08:00
19°
5.3 mm
1
14:00
22°
3.5 mm
3
warningclass
Locatie info
Region: Oberösterreich
Latitude: 48.3042°N
Longitude: 14.2881°E
268 masl
Postcode: 4020
Temp/Neerslag /Baro Onweer/Dauwpunt
    Temp Baro 1h Neerslag Dauwpunt Wind UV Bewolking  
 05:03     21:07    Daglengte: 16:04 Vandaag
20:00
26°
1009.9 hPa
47%
17.7°
1
Windvlaag: -1 m/s
36%
21:00
24°
1010.2 hPa
12%
16.3°
1
Windvlaag: -0.3 m/s
48%
22:00
23°
1010.7 hPa
12%
16.3°
2
Windvlaag: -0.6 m/s
14%
23:00
21°
1011.0 hPa
12%
16.3°
2
Windvlaag: -0.9 m/s
14%
 05:03     21:07    Daglengte: 16:04 Morgen
00:00
21°
1010.9 hPa
12%
16.5°
2
Windvlaag: -1.2 m/s
6%
01:00
20°
1011.0 hPa
12%
16.4°
1
Windvlaag: -1.2 m/s
7%
02:00
20°
1011.0 hPa
12%
16.5°
1
Windvlaag: -1.1 m/s
4%
03:00
19°
1011.1 hPa
12%
16.4°
1
Windvlaag: -1 m/s
8%
04:00
19°
1011.2 hPa
12%
16.2°
1
Windvlaag: -0.9 m/s
1%
05:00
18°
1011.4 hPa
13%
15.9°
1
Windvlaag: -0.9 m/s
0%
06:00
18°
1011.7 hPa
12%
16.6°
1
Windvlaag: -1 m/s
0%
07:00
20°
1011.8 hPa
12%
16.5°
1
Windvlaag: -0.9 m/s
1%
08:00
21°
1011.9 hPa
12%
16.8°
1
Windvlaag: -0.5 m/s
1%
09:00
23°
1011.9 hPa
12%
16.9°
1
Windvlaag: -0.2 m/s
5%
10:00
25°
1011.6 hPa
12%
16.8°
1
Windvlaag: 0.7 m/s
9%
11:00
27°
1011.3 hPa
15%
15.8°
2
Windvlaag: 1.7 m/s
7%
12:00
27°
1011.3 hPa
26%
17.4°
3
Windvlaag: 1.5 m/s
37%
13:00
29°
1011.0 hPa
75%
17.2°
2
Windvlaag: 1.2 m/s
22%
14:00
29°
1010.6 hPa
76%
16.2°
2
Windvlaag: 1 m/s
11%
15:00
29°
1010.0 hPa
72%
16.2°
2
Windvlaag: 0.8 m/s
16%
16:00
29°
Voelt als: 29.1°
1009.9 hPa
76%
15.6°
2
Windvlaag: -2.3 m/s
25%
17:00
28°
1010.2 hPa
76%
14.6°
2
Windvlaag: -2.6 m/s
50%
18:00
27°
1010.5 hPa 0.5 mm
78%
15.3°
3
Windvlaag: -1.7 m/s
62% warningclass
19:00
25°
1011.1 hPa 1.1 mm
78%
15.1°
3
Windvlaag: -0.2 m/s
87%
20:00
24°
1012.1 hPa
78%
16.7°
3
Windvlaag: 0.7 m/s
80%
21:00
22°
1012.9 hPa 0.6 mm
75%
17.7°
3
Windvlaag: 0.3 m/s
84%
22:00
21°
1013.7 hPa 0.7 mm
73%
18.3°
3
Windvlaag: -0.2 m/s
81%
23:00
20°
1014.2 hPa 0.3 mm
36%
18.1°
3
Windvlaag: -0.3 m/s
30%
 05:03     21:07    Daglengte: 16:04 Vrijdag 21 Jun
00:00
19°
1014.4 hPa
42%
18.0°
3
Windvlaag: -0.9 m/s
26%
01:00
19°
1014.8 hPa
82%
18.0°
3
Windvlaag: -0.8 m/s
31%
02:00
19°
1014.6 hPa
82%
17.8°
2
Windvlaag: -0.5 m/s
63%
03:00
19°
1014.9 hPa 0.6 mm
82%
17.5°
2
Windvlaag: 0.2 m/s
57%
04:00
18°
1015.1 hPa 0.9 mm
29%
17.4°
2
Windvlaag: 0.6 m/s
51%
05:00
18°
1015.1 hPa 0.8 mm
25%
17.3°
2
Windvlaag: 0.6 m/s
35%
06:00
18°
1015.4 hPa
21%
17.1°
2
Windvlaag: 0.8 m/s
30%
07:00
19°
1015.7 hPa
17%
17.2°
2
Windvlaag: 1.2 m/s
30%
08:00
20°
1016.0 hPa
34%
17.2°
2
Windvlaag: 1.9 m/s
45%
09:00
21°
1016.3 hPa
79%
17.0°
3
Windvlaag: 1.7 m/s
46%
10:00
22°
1016.4 hPa
41%
16.5°
3
Windvlaag: 1.2 m/s
73%
11:00
23°
1016.4 hPa
73%
16.2°
3
Windvlaag: 1.1 m/s
72%
12:00
23°
1016.5 hPa
68%
15.7°
3
Windvlaag: 0.8 m/s
60%
13:00
24°
1015.8 hPa
31%
15.8°
3
Windvlaag: 0.2 m/s
54%
14:00
25°
1015.2 hPa
29%
15.4°
2
Windvlaag: 0.1 m/s
52%
15:00
26°
1014.9 hPa
66%
15.1°
3
Windvlaag: 0.5 m/s
66%
16:00
25°
1014.7 hPa
75%
14.6°
3
Windvlaag: 1.2 m/s
79%
17:00
23°
1015.2 hPa
100%
12.5°
4
Windvlaag: 1.2 m/s
78%
18:00
23°
1014.9 hPa 1.1 mm
96%
12.4°
3
Windvlaag: 0.9 m/s
84%
19:00
22°
1015.3 hPa
95%
13.2°
2
Windvlaag: -1.2 m/s
76%
20:00
21°
1016.1 hPa
100%
15.5°
2
Windvlaag: -0.7 m/s
78%
21:00
20°
1016.8 hPa
100%
16.3°
2
Windvlaag: -0.2 m/s
81%
22:00
20°
1017.5 hPa
53%
17.3°
1
Windvlaag: -1.1 m/s
75%
23:00
19°
1017.7 hPa
99%
16.8°
2
Windvlaag: -2.2 m/s
85%
 05:03     21:07    Daglengte: 16:04 Zaterdag 22 Jun
00:00
18°
1017.9 hPa
43%
16.2°
2
Windvlaag: -2.4 m/s
68%
01:00
18°
1018.0 hPa
90%
16.3°
1
Windvlaag: -2.2 m/s
81%
02:00
17°
1018.1 hPa
89%
16.7°
1
Windvlaag: -1.7 m/s
83%
03:00
17°
1018.1 hPa 1.2 mm
89%
17.0°
1
Windvlaag: -1.3 m/s
88%
04:00
17°
1018.1 hPa 1.3 mm
94%
17.1°
1
Windvlaag: -1 m/s
86%
05:00
17°
1018.2 hPa 1.7 mm
89%
16.8°
1
Windvlaag: -0.9 m/s
85%
06:00
17°
1018.3 hPa
91%
17.0°
1
Windvlaag: -0.8 m/s
88%
07:00
18°
1018.5 hPa
99%
17.4°
1
Windvlaag: -0.8 m/s
92%
08:00
19°
1018.6 hPa 1.1 mm
100%
17.6°
1
Windvlaag: -0.8 m/s
87%
09:00
19°
1018.3 hPa 1.6 mm
99%
17.8°
2
Windvlaag: -0.8 m/s
92%
10:00
20°
1017.9 hPa
58%
17.9°
2
Windvlaag: -0.5 m/s
86%
11:00
21°
1017.5 hPa
94%
18.0°
2
Windvlaag: 0.8 m/s
82%
12:00
21°
1017.2 hPa
97%
18.2°
3
Windvlaag: 0.3 m/s
86%
13:00
22°
1016.8 hPa
99%
18.2°
3
Windvlaag: -0.2 m/s
82%
14:00
22°
1016.4 hPa 1.9 mm
100%
18.2°
3
Windvlaag: -0.4 m/s
82% warningclass
15:00
23°
1016.0 hPa 2.0 mm
100%
18.6°
4
Windvlaag: 3.5 m/s
89% warningclass
16:00
22°
1015.7 hPa 2.3 mm
100%
18.9°
3
Windvlaag: 3.1 m/s
87% warningclass
17:00
21°
1015.4 hPa 2.8 mm
100%
18.6°
3
Windvlaag: 5 m/s
73%
18:00
21°
1015.2 hPa 2.8 mm
100%
18.7°
3
Windvlaag: 2.8 m/s
74%
19:00
21°
1015.2 hPa
95%
18.7°
3
Windvlaag: 2.1 m/s
78%
Temp/Neerslag /Baro Onweer/Dauwpunt
    Temp Baro Neerslag Dauwpunt Wind Bewolking  
 05:03     21:07    Daglengte: 16:04 Vandaag
20:00
26°
1009.9 hPa   17.7°
1
36%
23:00
21°
1011.0 hPa   16.3°
2
14%
 05:03     21:07    Daglengte: 16:04 Morgen
02:00
20°
1011.0 hPa   16.5°
1
4%
05:00
18°
1011.4 hPa   15.9°
1
0%
08:00
21°
1011.9 hPa   16.8°
1
1%
11:00
27°
1011.3 hPa   15.8°
2
7%
14:00
29°
1010.6 hPa   16.2°
2
11%
17:00
28°
1010.2 hPa   14.6°
2
50%
20:00
24°
1012.1 hPa 1.6 mm 16.7°
3
80%
23:00
20°
1014.2 hPa 1.7 mm 18.1°
3
30%
 05:03     21:07    Daglengte: 16:04 Vrijdag 21 Jun
02:00
19°
1014.6 hPa   17.8°
2
63%
05:00
18°
1015.1 hPa 2.2 mm 17.3°
2
35%
08:00
20°
1016.0 hPa   17.2°
2
45%
11:00
23°
1016.4 hPa   16.2°
3
72%
14:00
25°
1015.2 hPa   15.4°
2
52%
17:00
23°
1015.2 hPa   12.5°
4
78%
20:00
21°
1016.1 hPa 1.1 mm 15.5°
2
78%
23:00
19°
1017.7 hPa   16.8°
2
85%
 05:03     21:07    Daglengte: 16:04 Zaterdag 22 Jun
02:00
17°
1018.1 hPa   16.7°
1
83%
05:00
17°
1018.2 hPa 4.2 mm 16.8°
1
85%
08:00
19°
1018.6 hPa 1.1 mm 17.6°
1
87%
11:00
21°
1017.5 hPa 1.6 mm 18.0°
2
82%
14:00
22°
1016.4 hPa 1.9 mm 18.2°
3
82% warningclass
17:00
21°
1015.4 hPa 7.1 mm 18.6°
3
73%
20:00
21°
1015.2 hPa 8.3 mm 18.5°
3
82%
23:00
19°
1015.8 hPa 41.2 mm 18.0°
2
92%
 05:04     21:07    Daglengte: 16:03 Zondag 23 Jun
02:00
18°
1016.2 hPa 41.5 mm 17.7°
1
92%
05:00
18°
1016.7 hPa 41.6 mm 17.5°
1
91%
08:00
19°
1017.2 hPa 43.3 mm 17.3°
1
91%
11:00
20°
1017.9 hPa 43.9 mm 17.5°
2
89%
14:00
21°
1018.5 hPa 44.2 mm 17.6°
3
86%
17:00
21°
1019.2 hPa 44.5 mm 18.6°
2
80%
20:00
21°
1020.0 hPa 44.5 mm 19.5°
1
74%
23:00
19°
1020.9 hPa 44.5 mm 17.3°
1
74%
 05:04     21:07    Daglengte: 16:03 Maandag 24 Jun
02:00
18°
1021.6 hPa 44.5 mm 15.3°
1
74%
05:00
18°
1022.2 hPa 44.5 mm 14.8°
1
81%
08:00
19°
1022.9 hPa 44.5 mm 14.4°
2
87%
11:00
22°
1022.6 hPa 44.5 mm 15.5°
2
85%
14:00
25°
1022.3 hPa 44.5 mm 16.4°
2
83%
17:00
25°
1022.2 hPa 44.6 mm 18.1°
1
45%
20:00
24°
1022.1 hPa 44.8 mm 19.4°
1
7%
23:00
21°
1023.3 hPa 45.0 mm 16.9°
1
14%
 05:04     21:08    Daglengte: 16:04 Dinsdag 25 Jun
02:00
18°
1024.4 hPa 45.0 mm 14.5°
2
21%
05:00
19°
1024.7 hPa 45.0 mm 14.5°
2
36%
08:00
21°
1025.0 hPa 45.0 mm 14.6°
3
50%
11:00
24°
1024.2 hPa 45.0 mm 16.1°
3
25%
14:00
28°
1023.3 hPa 45.0 mm 17.2°
3
0%
17:00
27°
1022.9 hPa 45.0 mm 18.1°
3
0%
20:00
26°
1022.7 hPa 45.0 mm 18.8°
3
0%
23:00
23°
1023.3 hPa 45.0 mm 17.7°
3
0%
 05:05     21:08    Daglengte: 16:03 Woensdag 26 Jun
02:00
21°
1023.8 hPa 45.0 mm 16.6°
4
0%
05:00
22°
1023.4 hPa 45.0 mm 17.2°
4
0%
08:00
23°
1023.0 hPa 45.0 mm 18.0°
5
0%
11:00
27°
1022.1 hPa 45.0 mm 19.5°
5
0%
14:00
31°
1021.1 hPa 45.0 mm 20.6°
5
0%
17:00
29°
1020.2 hPa   20.7°
4
0%
20:00
28°
1019.5 hPa 89.9 mm 20.7°
4
0%
 05:05     21:07    Daglengte: 16:02 Donderdag 27 Jun
02:00
22°
1019.9 hPa 89.9 mm 18.2°
2
0%
08:00
23°
1019.7 hPa 89.9 mm 18.9°
2
0%
14:00
31°
1017.7 hPa 89.9 mm 21.4°
0
2%
20:00
29°
1015.9 hPa 89.9 mm 24.2°
1
0%
 05:06     21:07    Daglengte: 16:01 Vrijdag 28 Jun
02:00
22°
1017.3 hPa 89.9 mm 18.8°
2
0%
08:00
25°
1017.2 hPa 89.9 mm 20.0°
1
0%
14:00
34°
1014.9 hPa 89.9 mm 20.0°
2
0%
20:00
32°
1012.8 hPa 92.6 mm 20.8°
1
1%
 05:06     21:07    Daglengte: 16:01 Zaterdag 29 Jun
02:00
26°
1013.5 hPa 99.2 mm 18.5°
1
0%
08:00
22°
1014.6 hPa 101.7 mm 20.4°
2
1%
14:00
29°
1014.9 hPa 0.4 mm 17.0°
2
16%
20:00
26°
1014.7 hPa 0.9 mm 19.5°
1
23%
 05:07     21:07    Daglengte: 16:00 Zondag 30 Jun
02:00
18°
1016.0 hPa 0.4 mm 15.4°
1
24%
08:00
21°
1016.1 hPa 0.4 mm 16.9°
0
22%
14:00
29°
1014.6 hPa 0.4 mm 16.5°
1
21%
20:00
25°
1014.3 hPa 0.9 mm 18.6°
1
24%
 05:07     21:07    Daglengte: 16:00 Maandag 01 Jul
02:00
17°
1015.5 hPa 1.2 mm 15.1°
1
37%
08:00
21°
1015.5 hPa 1.5 mm 16.6°
1
32%
14:00
28°
1013.9 hPa 0.6 mm 15.8°
2
28%
20:00
24°
1013.8 hPa 1.1 mm 18.7°
1
30%
 05:08     21:07    Daglengte: 15:59 Dinsdag 02 Jul
02:00
17°
1015.3 hPa 0.8 mm 14.9°
1
47%
08:00
20°
1015.8 hPa 0.6 mm 16.1°
1
33%
14:00
26°
1014.2 hPa 0.9 mm 16.1°
1
23%
20:00
24°
1013.9 hPa 0.7 mm 18.2°
1
32%
 05:09     21:06    Daglengte: 15:57 Woensdag 03 Jul
02:00
16°
1015.3 hPa 2.0 mm 14.5°
1
42%
08:00
20°
1015.5 hPa 0.6 mm 16.3°
1
29%
14:00
27°
1013.8 hPa 0.4 mm 15.8°
1
29%
20:00
24°
1013.8 hPa 1.0 mm 18.8°
1
37%
 05:10     21:06    Daglengte: 15:56 Donderdag 04 Jul
02:00
16°
1015.5 hPa 2.1 mm 14.6°
1
45%
08:00
19°
1016.5 hPa 1.1 mm 16.0°
1
41%
14:00
26°
1015.6 hPa 0.6 mm 15.4°
1
34%
  CAPE Lifted Index Hail Supercell Tornado SRH 3km CL BTM PRES CL TOP PRES Swiss DWD icon SMHI TS
 05:03     21:07    Daglengte: 16:04 Vandaag
20:00 0 J/kg -1.6 K 0 % 0 % 0 % 0 m²/s² 0 0 0.89 3
21:00 3 J/kg -1.5 K 0 % 0 % 0 % 0 m²/s² 0 0 0.69 3
22:00 0 J/kg -1.0 K 0 % 0 % 0 % 0 m²/s² 0 0 0.62 1
23:00 0 J/kg -1.2 K 0 % 0 % 0 % 0 m²/s² 0 0 0.42 2
 05:03     21:07    Daglengte: 16:04 Morgen
00:00 0 J/kg -1.0 K 0 % 0 % 0 % 0 m²/s² 0 0 1.85 2
01:00 0 J/kg -0.8 K 0 % 0 % 0 % 0 m²/s² 0 0 2.65 3
02:00 0 J/kg -0.3 K 0 % 0 % 0 % 0 m²/s² 0 0 3.24 2
03:00 0 J/kg -0.6 K 0 % 0 % 0 % 0 m²/s² 0 0 3.15 0
04:00 0 J/kg -1.0 K 0 % 0 % 0 % 0 m²/s² 0 0 2.84 0
05:00 0 J/kg -0.6 K 0 % 0 % 0 % 0 m²/s² 0 0 3.36 0
06:00 0 J/kg -0.7 K 0 % 0 % 0 % 0 m²/s² 0 0 2.66 0
07:00 0 J/kg -0.7 K 0 % 0 % 0 % 0 m²/s² 0 0 2.48 0
08:00 0 J/kg -0.8 K 0 % 0 % 0 % 0 m²/s² 0 0 1.96 0
09:00 0 J/kg -0.8 K 0 % 0 % 0 % 0 m²/s² 0 0 1.9 2
10:00 112 J/kg -1.5 K 0 % 0 % 0 % 0 m²/s² 0 0 1.29 2
11:00 671 J/kg -3.0 K 0 % 0 % 0 % 0 m²/s² 0 0 -0.39 0
12:00 1121 J/kg -4.4 K 0 % 0 % 0 % 0 m²/s² 0 0 -1.79 0
13:00 1323 J/kg -4.7 K 0 % 0 % 0 % 0 m²/s² 0 0 -2 2
14:00 1341 J/kg -4.8 K 0 % 0 % 0 % 0 m²/s² 0 0 -2.19 0
15:00 1162 J/kg -4.1 K 0 % 0 % 0 % 0 m²/s² 0 0 -1.46 1
16:00 1133 J/kg -4.1 K 0 % 0 % 0 % 0 m²/s² 0 0 -2.06 1
17:00 1104 J/kg -4.7 K 0 % 0 % 0 % 0 m²/s² 0 0 -3.02 3
18:00 741 J/kg -3.8 K 0 % 0 % 0 % 0 m²/s² 0 0 -2.75 80
19:00 0 J/kg -4.3 K 0 % 0 % 0 % 0 m²/s² 0 0 -3.19 80
20:00 0 J/kg -0.2 K 0 % 0 % 0 % 0 m²/s² 0 0 0.85 3
21:00 35 J/kg -0.3 K 0 % 0 % 0 % 0 m²/s² 0 0 0.51 3
22:00 1 J/kg 1.0 K 0 % 0 % 0 % 0 m²/s² 0 0 1.09 3
23:00 40 J/kg 2.1 K 0 % 0 % 0 % 0 m²/s² 0 0 2.1 3
 05:03     21:07    Daglengte: 16:04 Vrijdag 21 Jun
00:00 0 J/kg 1.9 K 0 % 0 % 0 % 0 m²/s² 0 0 2.44 2
01:00 0 J/kg 1.7 K 0 % 0 % 0 % 0 m²/s² 0 0 2.42 3
02:00 0 J/kg 2.4 K 0 % 0 % 0 % 0 m²/s² 0 0 3.84 3
03:00 0 J/kg 1.6 K 0 % 0 % 0 % 0 m²/s² 0 0 3.4 3
04:00 0 J/kg 1.6 K 0 % 0 % 0 % 0 m²/s² 0 0 3.4 2
05:00 0 J/kg 1.3 K 0 % 0 % 0 % 0 m²/s² 0 0 3.43 2
06:00 0 J/kg 0.0 K 0 % 0 % 0 % 0 m²/s² 0 0 2.64 2
07:00 0 J/kg -0.3 K 0 % 0 % 0 % 0 m²/s² 0 0 2.73 2
08:00 1 J/kg -0.6 K 0 % 0 % 0 % 0 m²/s² 0 0 2.19 2
09:00 24 J/kg -1.2 K 0 % 0 % 0 % 0 m²/s² 0 0 1.26 3
10:00 197 J/kg -1.6 K 0 % 0 % 0 % 0 m²/s² 0 0 0.8 3
11:00 647 J/kg -2.8 K 0 % 0 % 0 % 0 m²/s² 0 0 -0.7 3
12:00 1115 J/kg -3.9 K 0 % 0 % 0 % 0 m²/s² 0 0 -1.92 3
13:00 1285 J/kg -4.2 K 0 % 0 % 0 % 0 m²/s² 0 0 -2.22 3
14:00 1404 J/kg -4.7 K 0 % 0 % 0 % 0 m²/s² 0 0 -2.99 3
15:00 1527 J/kg -4.5 K 0 % 0 % 0 % 0 m²/s² 0 0 -2.94 3
16:00 227 J/kg -3.5 K 0 % 0 % 0 % 0 m²/s² 0 0 -2 3
17:00 0 J/kg -3.0 K 0 % 0 % 0 % 0 m²/s² 0 0 -2.04 80
18:00 143 J/kg -1.8 K 0 % 0 % 0 % 0 m²/s² 0 0 -1.59 80
19:00 189 J/kg -1.2 K 0 % 0 % 0 % 0 m²/s² 0 0 -1.08 3
20:00 382 J/kg -1.6 K 0 % 0 % 0 % 0 m²/s² 0 0 -1.33 80
21:00 330 J/kg -0.7 K 0 % 0 % 0 % 0 m²/s² 0 0 -0.61 3
22:00 224 J/kg -0.6 K 0 % 0 % 0 % 0 m²/s² 0 0 -0.21 3
23:00 110 J/kg -0.2 K 0 % 0 % 0 % 0 m²/s² 0 0 0.46 3
 05:03     21:07    Daglengte: 16:04 Zaterdag 22 Jun
00:00 11 J/kg 0.0 K 0 % 0 % 0 % 0 m²/s² 0 0 0.87 3
01:00 27 J/kg -0.4 K 0 % 0 % 0 % 0 m²/s² 0 0 0.26 3
02:00 3 J/kg 0.5 K 0 % 0 % 0 % 0 m²/s² 0 0 1.31 3
03:00 5 J/kg 0.3 K 0 % 0 % 0 % 0 m²/s² 0 0 1.26 3
04:00 2 J/kg 0.0 K 0 % 0 % 0 % 0 m²/s² 0 0 1.05 3
05:00 8 J/kg -0.2 K 0 % 0 % 0 % 0 m²/s² 0 0 0.67 3
06:00 0 J/kg -0.6 K 0 % 0 % 0 % 0 m²/s² 0 0 0.15 61
07:00 6 J/kg -0.8 K 0 % 0 % 0 % 0 m²/s² 0 0 0.1 61
08:00 93 J/kg -1.0 K 0 % 0 % 0 % 0 m²/s² 0 0 -0.19 61
09:00 387 J/kg -1.9 K 0 % 0 % 0 % 0 m²/s² 0 0 -1 61
10:00 668 J/kg -2.5 K 0 % 0 % 0 % 0 m²/s² 0 0 -1.6 3
11:00 757 J/kg -2.7 K 0 % 0 % 0 % 0 m²/s² 0 0 -1.38 3
12:00 885 J/kg -3.4 K 0 % 0 % 0 % 0 m²/s² 0 0 -2.17 3
13:00 922 J/kg -3.4 K 0 % 0 % 0 % 0 m²/s² 0 0 -1.78 3
14:00 1068 J/kg -4.5 K 0 % 0 % 0 % 0 m²/s² 0 0 -3 80
15:00 1074 J/kg -4.6 K 0 % 0 % 0 % 0 m²/s² 0 0 -3.94 80
16:00 970 J/kg -3.8 K 0 % 0 % 0 % 0 m²/s² 0 0 -3.35 3
17:00 649 J/kg -2.7 K 0 % 0 % 0 % 0 m²/s² 0 0 -1.26 3
18:00 537 J/kg -2.5 K 0 % 0 % 0 % 0 m²/s² 0 0 -1 3
19:00 289 J/kg -1.4 K 0 % 0 % 0 % 0 m²/s² 0 0 -0.17 3
Temp Baro Wind Neerslag
  EWN Forecast EWN WRFDA DWD ICON FMI HIRLAM MET Norway GFS
 05:03     21:07    Daglengte: 16:04 Vandaag
20:00 26.2° 1009.9 hPa 0.9 m/s 0.0 mm 22.5° 1010.7 hPa 0.8 m/s 0.1 mm 26.3° 1009.4 hPa 0.7 m/s -1.9 mm 28.2° 1010.5 hPa 1.0 m/s 0.0 mm 25.6° 1009.9 hPa 0.8 m/s 0.0 mm 18.9° 1011.6 hPa 1.4 m/s
23:00 21.4° 1011.0 hPa 1.8 m/s 0.0 mm 19.9° 1011.2 hPa 1.7 m/s 0.2 mm 20.6° 1011.0 hPa 1.8 m/s 0.0 mm 23.7° 1011.5 hPa 2.1 m/s 0.0 mm 21.2° 1010.9 hPa 1.3 m/s 0.0 mm 15.2° 1012.8 hPa 1.4 m/s
 05:03     21:07    Daglengte: 16:04 Morgen
02:00 20.1° 1011.0 hPa 1.3 m/s 0.0 mm 18.1° 1011.1 hPa 1.4 m/s 0.2 mm 18.2° 1011.1 hPa 1.4 m/s 0.0 mm 20.5° 1011.7 hPa 1.5 m/s 0.0 mm 20.4° 1010.8 hPa 0.1 m/s 0.0 mm 14.2° 1013.2 hPa 0.5 m/s
05:00 18.1° 1011.4 hPa 0.9 m/s 0.0 mm 15.3° 1010.7 hPa 1.6 m/s 0.2 mm 17.6° 1011.3 hPa 0.9 m/s 0.0 mm 17.9° 1012.1 hPa 0.8 m/s 0.0 mm 18.4° 1011.5 hPa 0.2 m/s 0.0 mm 13.4° 1012.9 hPa 0.3 m/s
08:00 21.4° 1011.9 hPa 0.7 m/s 0.0 mm 19.8° 1011.7 hPa 0.9 m/s 0.2 mm 20.7° 1011.8 hPa 0.4 m/s 0.0 mm 21.2° 1012.0 hPa 0.7 m/s 0.0 mm 21.7° 1012.0 hPa 0.3 m/s 0.0 mm 18.2° 1013.5 hPa 0.8 m/s
11:00 27.1° 1011.3 hPa 1.8 m/s 0.0 mm 24.4° 1011.5 hPa 2.0 m/s 0.2 mm 26.5° 1011.7 hPa 3.1 m/s 0.0 mm 27.6° 1011.3 hPa 2.8 m/s 0.0 mm 27.3° 1011.2 hPa 1.0 m/s 0.0 mm 24.1° 1012.6 hPa 2.0 m/s
14:00 29.1° 1010.6 hPa 1.7 m/s 0.0 mm 28.0° 1010.6 hPa 2.1 m/s 0.2 mm 29.2° 1010.8 hPa 2.8 m/s 0.0 mm 30.3° 1010.0 hPa 1.8 m/s 0.0 mm 27.6° 1011.1 hPa 0.9 m/s 0.9 mm 26.8° 1011.6 hPa 1.8 m/s
17:00 27.6° 1010.2 hPa 2.1 m/s 0.0 mm 29.0° 1009.6 hPa 1.4 m/s 0.2 mm 26.2° 1011.0 hPa 2.4 m/s 0.2 mm 31.3° 1008.8 hPa 2.0 m/s 0.0 mm 26.2° 1011.2 hPa 1.6 m/s 0.3 mm 26.2° 1011.7 hPa 4.0 m/s
20:00 23.9° 1012.1 hPa 2.6 m/s 1.6 mm 20.6° 1012.9 hPa 7.7 m/s 1.1 mm 20.6° 1014.4 hPa 1.7 m/s 1.4 mm 29.4° 1009.8 hPa 2.2 m/s 0.0 mm 23.8° 1012.3 hPa 3.2 m/s 0.0 mm 18.2° 1013.9 hPa 2.7 m/s
23:00 20.2° 1014.2 hPa 2.5 m/s 1.7 mm 17.9° 1014.4 hPa 3.4 m/s 2.2 mm 19.0° 1015.0 hPa 2.5 m/s 0.0 mm 22.9° 1011.9 hPa 0.2 m/s 0.0 mm 19.9° 1015.1 hPa 4.2 m/s 0.7 mm 17.0° 1016.2 hPa 1.1 m/s
 05:03     21:07    Daglengte: 16:04 Vrijdag 21 Jun
02:00 18.8° 1014.6 hPa 2.1 m/s 0.0 mm 15.8° 1014.0 hPa 2.3 m/s 3.6 mm 18.0° 1016.3 hPa 1.4 m/s 0.1 mm 21.0° 1012.7 hPa 3.5 m/s 0.0 mm 18.6° 1015.9 hPa 2.1 m/s 2.1 mm 16.4° 1016.7 hPa 1.0 m/s
05:00 18.2° 1015.1 hPa 1.8 m/s 2.2 mm 14.9° 1014.4 hPa 0.6 m/s 3.6 mm 16.8° 1016.5 hPa 1.1 m/s 0.0 mm 20.4° 1013.4 hPa 4.0 m/s 0.0 mm 18.2° 1016.3 hPa 1.5 m/s 1.8 mm 14.2° 1016.8 hPa 1.0 m/s
08:00 19.5° 1016.0 hPa 2.4 m/s 0.0 mm 18.8° 1015.1 hPa 1.5 m/s 3.6 mm 19.6° 1017.2 hPa 1.5 m/s 0.0 mm 19.7° 1015.1 hPa 4.9 m/s 0.0 mm 20.0° 1017.0 hPa 1.9 m/s 0.0 mm 18.0° 1017.4 hPa 1.0 m/s
11:00 22.5° 1016.4 hPa 2.7 m/s 0.0 mm 23.1° 1015.4 hPa 1.7 m/s 3.6 mm 21.7° 1017.3 hPa 1.9 m/s 0.1 mm 23.8° 1015.8 hPa 4.7 m/s 0.0 mm 23.1° 1017.1 hPa 1.7 m/s 0.0 mm 23.4° 1017.2 hPa 1.4 m/s
14:00 25.3° 1015.2 hPa 2.5 m/s 0.0 mm 25.7° 1014.0 hPa 0.9 m/s 3.8 mm 24.8° 1016.2 hPa 1.7 m/s 0.0 mm 25.6° 1014.8 hPa 4.6 m/s 0.0 mm 26.3° 1015.0 hPa 2.1 m/s 0.0 mm 25.8° 1016.0 hPa 2.1 m/s
17:00 23.4° 1015.2 hPa 3.6 m/s 0.0 mm 20.3° 1015.2 hPa 6.6 m/s 7.7 mm 22.9° 1016.3 hPa 3.7 m/s 0.4 mm 26.9° 1014.3 hPa 2.1 m/s 0.0 mm 25.0° 1015.7 hPa 1.6 m/s
20:00 21.0° 1016.1 hPa 1.9 m/s 1.1 mm 20.4° 1015.6 hPa 1.7 m/s 12.1 mm 20.4° 1017.1 hPa 0.9 m/s 0.9 mm 22.7° 1015.8 hPa 3.1 m/s 0.0 mm 21.7° 1016.3 hPa 2.1 m/s
23:00 18.9° 1017.7 hPa 1.5 m/s 0.0 mm 18.3° 1016.6 hPa 2.1 m/s 12.7 mm 17.9° 1018.7 hPa 1.1 m/s 0.2 mm 19.9° 1017.6 hPa 1.1 m/s 0.0 mm 17.3° 1017.9 hPa 2.0 m/s
 05:03     21:07    Daglengte: 16:04 Zaterdag 22 Jun
02:00 17.5° 1018.1 hPa 1.3 m/s 0.0 mm 15.9° 1016.0 hPa 1.6 m/s 13.0 mm 17.4° 1018.8 hPa 0.7 m/s 0.1 mm 18.6° 1018.0 hPa 1.1 m/s 0.9 mm 16.9° 1017.7 hPa 1.6 m/s
05:00 17.1° 1018.2 hPa 1.0 m/s 4.2 mm 15.6° 1014.9 hPa 1.3 m/s 13.0 mm 17.1° 1018.5 hPa 0.7 m/s 0.9 mm 18.1° 1018.3 hPa 0.6 m/s 3.2 mm 16.7° 1016.9 hPa 1.6 m/s
08:00 18.5° 1018.6 hPa 1.3 m/s 1.1 mm 18.8° 1015.3 hPa 1.2 m/s 13.0 mm 18.3° 1019.2 hPa 1.1 m/s 0.3 mm 18.8° 1018.6 hPa 1.0 m/s 1.9 mm 18.2° 1017.2 hPa 1.9 m/s
11:00 20.6° 1017.5 hPa 2.4 m/s 1.6 mm 22.3° 1013.8 hPa 1.8 m/s 13.2 mm 21.1° 1018.5 hPa 3.4 m/s 0.2 mm 20.6° 1017.5 hPa 2.2 m/s 20.4° 1016.1 hPa 3.9 m/s
14:00 22.5° 1016.4 hPa 3.4 m/s 1.9 mm 24.9° 1012.4 hPa 2.7 m/s 13.9 mm 22.8° 1017.7 hPa 4.1 m/s 0.5 mm 22.5° 1016.3 hPa 3.4 m/s 23.0° 1014.7 hPa 5.3 m/s
17:00 21.5° 1015.4 hPa 3.2 m/s 7.1 mm 21.3° 1011.2 hPa 1.9 m/s 19.8 mm 21.9° 1016.6 hPa 4.6 m/s 0.8 mm 21.4° 1015.7 hPa 3.1 m/s 22.9° 1013.8 hPa 4.1 m/s
20:00 20.5° 1015.2 hPa 2.9 m/s 8.3 mm 21.3° 1012.3 hPa 1.4 m/s 24.6 mm 20.7° 1017.6 hPa 3.9 m/s 0.2 mm 20.3° 1015.1 hPa 2.9 m/s 19.2° 1014.3 hPa 3.8 m/s
23:00 18.7° 1015.8 hPa 1.8 m/s 41.2 mm 18.8° 1015.8 hPa 1.6 m/s 17.8° 1015.8 hPa 3.1 m/s 41.2 mm
 05:04     21:07    Daglengte: 16:03 Zondag 23 Jun
02:00 17.9° 1016.2 hPa 1.1 m/s 41.5 mm 18.0° 1016.2 hPa 1.0 m/s 17.1° 1016.2 hPa 1.9 m/s 41.5 mm
05:00 18.2° 1016.7 hPa 1.2 m/s 41.6 mm 18.4° 1016.7 hPa 1.1 m/s 17.1° 1016.9 hPa 2.5 m/s 41.6 mm
08:00 18.5° 1017.2 hPa 1.3 m/s 43.3 mm 18.7° 1017.1 hPa 1.2 m/s 16.6° 1018.2 hPa 2.0 m/s 43.3 mm
11:00 19.9° 1017.9 hPa 2.1 m/s 43.9 mm 20.0° 1017.8 hPa 2.0 m/s 17.7° 1019.6 hPa 2.7 m/s 43.9 mm
14:00 21.3° 1018.5 hPa 2.9 m/s 44.2 mm 21.4° 1018.4 hPa 2.9 m/s 20.4° 1019.7 hPa 3.0 m/s 44.2 mm
17:00 21.2° 1019.2 hPa 2.1 m/s 44.5 mm 21.2° 1019.1 hPa 1.9 m/s 21.7° 1019.5 hPa 3.9 m/s 44.5 mm
20:00 20.9° 1020.0 hPa 1.0 m/s 44.5 mm 21.0° 1019.9 hPa 0.9 m/s 20.0° 1021.0 hPa 2.4 m/s 44.5 mm
23:00 19.1° 1020.9 hPa 1.1 m/s 44.5 mm 19.4° 1020.7 hPa 0.9 m/s 15.4° 1023.0 hPa 2.3 m/s 44.5 mm
 05:04     21:07    Daglengte: 16:03 Maandag 24 Jun
02:00 17.6° 1021.6 hPa 1.1 m/s 44.5 mm 17.9° 1021.5 hPa 1.0 m/s 14.0° 1023.0 hPa 1.6 m/s 44.5 mm
05:00 18.3° 1022.2 hPa 1.4 m/s 44.5 mm 18.8° 1022.1 hPa 1.4 m/s 13.3° 1023.2 hPa 1.4 m/s 44.5 mm
08:00 19.4° 1022.9 hPa 1.8 m/s 44.5 mm 19.6° 1022.8 hPa 1.8 m/s 17.3° 1023.7 hPa 1.5 m/s 44.5 mm
11:00 22.4° 1022.6 hPa 1.9 m/s 44.5 mm 22.5° 1022.5 hPa 1.9 m/s 22.1° 1023.5 hPa 2.0 m/s 44.5 mm
14:00 25.3° 1022.3 hPa 2.0 m/s 44.5 mm 25.3° 1022.3 hPa 2.0 m/s 25.0° 1022.7 hPa 2.6 m/s 44.5 mm
17:00 24.7° 1022.2 hPa 1.4 m/s 44.6 mm 24.6° 1022.1 hPa 1.4 m/s 25.5° 1022.3 hPa 1.9 m/s 44.6 mm
20:00 23.9° 1022.1 hPa 0.8 m/s 44.8 mm 24.0° 1022.0 hPa 0.7 m/s 22.4° 1023.1 hPa 1.8 m/s 44.8 mm
23:00 20.8° 1023.3 hPa 1.5 m/s 45.0 mm 21.1° 1023.1 hPa 1.4 m/s 18.6° 1025.1 hPa 2.3 m/s 45.0 mm
 05:04     21:08    Daglengte: 16:04 Dinsdag 25 Jun
02:00 18.0° 1024.4 hPa 2.1 m/s 45.0 mm 18.1° 1024.3 hPa 2.1 m/s 17.2° 1025.1 hPa 2.1 m/s 45.0 mm
05:00 19.2° 1024.7 hPa 2.3 m/s 45.0 mm 19.5° 1024.7 hPa 2.3 m/s 16.4° 1024.6 hPa 2.1 m/s 45.0 mm
08:00 20.7° 1025.0 hPa 2.5 m/s 45.0 mm 20.8° 1025.1 hPa 2.5 m/s 20.0° 1024.4 hPa 2.8 m/s 45.0 mm
11:00 24.4° 1024.2 hPa 3.0 m/s 45.0 mm 24.4° 1024.2 hPa 3.0 m/s 24.1° 1023.7 hPa 3.5 m/s 45.0 mm
14:00 28.0° 1023.3 hPa 3.5 m/s 45.0 mm 28.0° 1023.4 hPa 3.5 m/s 27.6° 1022.8 hPa 3.3 m/s 45.0 mm
17:00 26.9° 1022.9 hPa 3.1 m/s 45.0 mm 26.8° 1023.0 hPa 3.1 m/s 28.5° 1021.8 hPa 3.0 m/s 45.0 mm
20:00 25.5° 1022.7 hPa 2.8 m/s 45.0 mm 25.6° 1022.7 hPa 2.8 m/s 24.9° 1022.3 hPa 2.7 m/s 45.0 mm
23:00 23.2° 1023.3 hPa 3.3 m/s 45.0 mm 23.5° 1023.2 hPa 3.4 m/s 20.9° 1024.0 hPa 2.6 m/s 45.0 mm
 05:05     21:08    Daglengte: 16:03 Woensdag 26 Jun
02:00 21.1° 1023.8 hPa 3.9 m/s 45.0 mm 21.3° 1023.8 hPa 4.0 m/s 19.5° 1023.5 hPa 2.3 m/s 45.0 mm
05:00 22.0° 1023.4 hPa 4.4 m/s 45.0 mm 22.4° 1023.4 hPa 4.6 m/s 18.4° 1023.1 hPa 1.9 m/s 45.0 mm
08:00 23.3° 1023.0 hPa 4.9 m/s 45.0 mm 23.4° 1023.0 hPa 5.2 m/s 22.1° 1023.0 hPa 2.0 m/s 45.0 mm
11:00 27.0° 1022.1 hPa 4.9 m/s 45.0 mm 27.0° 1022.0 hPa 5.2 m/s 26.7° 1022.3 hPa 2.1 m/s 45.0 mm
14:00 30.6° 1021.1 hPa 4.9 m/s 45.0 mm 30.7° 1021.1 hPa 5.2 m/s 29.6° 1020.9 hPa 1.7 m/s 45.0 mm
17:00 29.3° 1020.2 hPa 4.3 m/s 45.0 mm 29.3° 1020.3 hPa 4.5 m/s 29.4° 1019.6 hPa 1.7 m/s 45.0 mm
20:00 27.7° 1019.5 hPa 3.8 m/s 45.0 mm 27.9° 1019.5 hPa 3.9 m/s 25.2° 1019.7 hPa 2.6 m/s 45.0 mm
 05:05     21:07    Daglengte: 16:02 Donderdag 27 Jun
02:00 21.9° 1019.9 hPa 2.2 m/s 45.0 mm 22.2° 1019.9 hPa 2.3 m/s 18.9° 1019.9 hPa 1.4 m/s 45.0 mm
08:00 23.0° 1019.7 hPa 1.8 m/s 45.0 mm 23.1° 1019.8 hPa 1.9 m/s 22.2° 1018.5 hPa 0.2 m/s 45.0 mm
14:00 31.0° 1017.7 hPa 0.4 m/s 45.0 mm 31.1° 1017.9 hPa 0.2 m/s 30.2° 1016.1 hPa 2.3 m/s 45.0 mm
20:00 29.3° 1015.9 hPa 1.3 m/s 45.0 mm 29.5° 1016.0 hPa 1.3 m/s 26.5° 1014.8 hPa 1.4 m/s 45.0 mm
 05:06     21:07    Daglengte: 16:01 Vrijdag 28 Jun
02:00 21.6° 1017.3 hPa 1.8 m/s 45.0 mm 21.8° 1017.4 hPa 1.9 m/s 19.9° 1015.9 hPa 0.5 m/s 45.0 mm
08:00 24.8° 1017.2 hPa 0.9 m/s 45.0 mm 24.9° 1017.4 hPa 0.8 m/s 23.2° 1014.5 hPa 1.7 m/s 45.0 mm
14:00 33.7° 1014.9 hPa 2.4 m/s 45.0 mm 33.9° 1015.1 hPa 2.2 m/s 31.2° 1012.1 hPa 4.1 m/s 45.0 mm
20:00 31.8° 1012.8 hPa 0.7 m/s 47.2 mm 32.4° 1012.8 hPa 0.6 m/s 24.8° 1012.6 hPa 2.2 m/s 47.2 mm
 05:06     21:07    Daglengte: 16:01 Zaterdag 29 Jun
02:00 25.8° 1013.5 hPa 0.8 m/s 49.7 mm 26.3° 1013.5 hPa 0.7 m/s 20.2° 1013.9 hPa 1.9 m/s 49.7 mm
08:00 21.6° 1014.6 hPa 2.4 m/s 51.1 mm 21.6° 1014.6 hPa 2.4 m/s 51.1 mm
14:00 29.5° 1014.9 hPa 1.5 m/s 0.4 mm
20:00 25.5° 1014.7 hPa 0.8 m/s 0.9 mm
 05:07     21:07    Daglengte: 16:00 Zondag 30 Jun
02:00 18.0° 1016.0 hPa 0.6 m/s 0.4 mm
08:00 21.0° 1016.1 hPa 0.4 m/s 0.4 mm
14:00 28.5° 1014.6 hPa 1.1 m/s 0.4 mm
20:00 24.8° 1014.3 hPa 0.7 m/s 0.9 mm
 05:07     21:07    Daglengte: 16:00 Maandag 01 Jul
02:00 17.5° 1015.5 hPa 1.0 m/s 1.2 mm
08:00 20.7° 1015.5 hPa 0.8 m/s 1.5 mm
14:00 28.1° 1013.9 hPa 1.5 m/s 0.6 mm
20:00 24.0° 1013.8 hPa 0.9 m/s 1.1 mm
 05:08     21:07    Daglengte: 15:59 Dinsdag 02 Jul
02:00 16.7° 1015.3 hPa 1.1 m/s 0.8 mm
08:00 19.8° 1015.8 hPa 1.4 m/s 0.6 mm
14:00 26.4° 1014.2 hPa 1.4 m/s 0.9 mm
20:00 23.7° 1013.9 hPa 0.8 m/s 0.7 mm
 05:09     21:06    Daglengte: 15:57 Woensdag 03 Jul
02:00 16.2° 1015.3 hPa 1.0 m/s 2.0 mm
08:00 19.6° 1015.5 hPa 0.8 m/s 0.6 mm
14:00 26.7° 1013.8 hPa 0.9 m/s 0.4 mm
20:00 23.6° 1013.8 hPa 0.6 m/s 1.0 mm
 05:10     21:06    Daglengte: 15:56 Donderdag 04 Jul
02:00 16.3° 1015.5 hPa 0.8 m/s 2.1 mm
08:00 19.1° 1016.5 hPa 1.0 m/s 1.1 mm
14:00 26.0° 1015.6 hPa 1.2 m/s 0.6 mm
FMI Hirlam - 7.5 km EWN WRFDA - 12 km DWD ICON - 7 km GFS - 25 km Basiskaart






























































Updatetijd (Europe/Amsterdam) Resolutie Lengte Stap
FMI Hirlam 19:00, 01:00, 07:00, 13:00 7.5 km 49h 1h
EWN WRFDA 16:00, 22:00, 04:00, 10:00 12 km 73h 1h
DWD ICON 17:45, 23:45, 05:45, 11:45 7 km 75h 1h
GFS 14:30, 20:30, 02:30, 08:30 25 km 237h 3h
30+ mm
25-30 mm
20-25 mm
15-20 mm
10-15 mm
6-10 mm
4-6 mm
2-4 mm
1-2 mm
0.5-1 mm
0.2-0.5 mm
0.1-0.2 mm
30+ mm
25-30 mm
20-25 mm
15-20 mm
10-15 mm
6-10 mm
4-6 mm
2-4 mm
1-2 mm
0.5-1 mm
0.2-0.5 mm
0.1-0.2 mm
Sneeuwval
Natte sneeuw
Hagel
Vorst
30+ mm
25-30 mm
20-25 mm
15-20 mm
10-15 mm
6-10 mm
4-6 mm
2-4 mm
1-2 mm
0.5-1 mm
0.2-0.5 mm
0.1-0.2 mm
Sneeuwval
Natte sneeuw
Hagel
Vorst
Onweer
50 mm
40 mm
30 mm
26 mm
22 mm
18 mm
14 mm
10 mm
9 mm
8 mm
7 mm
6 mm
5 mm
4.5 mm
4 mm
3.5 mm
3 mm
2.5 mm
2 mm
1.5 mm
1 mm
0.8 mm
0.6 mm
0.4 mm
0.2 mm
0.05 mm
35°
30°
25°
20°
15°
10°
-5°
-10°
-15°
-20°
-25°
-30°
-35°
33> m/s
29 m/s
25 m/s
21 m/s
17 m/s
14 m/s
11 m/s
8 m/s
5 m/s
3 m/s
0 m/s
2600 J/kg
2400 J/kg
2200 J/kg
2000 J/kg
1800 J/kg
1600 J/kg
1400 J/kg
1200 J/kg
1000 J/kg
800 J/kg
600 J/kg
400 J/kg
200 J/kg
70 dBZ
65 dBZ
60 dBZ
55 dBZ
50 dBZ
45 dBZ
40 dBZ
35 dBZ
30 dBZ
25 dBZ
20 dBZ
15 dBZ
10 dBZ
5 dBZ
-1 K
-2 K
-3 K
-4 K
-5 K
-6 K
-7 K
-8 K
-9 K
950 m²/s²
900 m²/s²
850 m²/s²
800 m²/s²
750 m²/s²
700 m²/s²
650 m²/s²
600 m²/s²
550 m²/s²
500 m²/s²
450 m²/s²
400 m²/s²
350 m²/s²
300 m²/s²
250 m²/s²
200 m²/s²
150 m²/s²
100 m²/s²
46 m/s
44 m/s
42 m/s
40 m/s
38 m/s
36 m/s
34 m/s
32 m/s
30 m/s
28 m/s
26 m/s
24 m/s
22 m/s
20 m/s
16 m/s
12 m/s
8 m/s
4 m/s
30 m/s
28 m/s
26 m/s
24 m/s
22 m/s
20 m/s
18 m/s
16 m/s
14 m/s
12 m/s
10 m/s
8 m/s
6 m/s
4 m/s
2 m/s
3.0
2.8
2.6
2.4
2.2
2.0
1.8
1.6
1.4
1.2
1.0
0.8
0.6
0.4
0.2
15
14
13
12
11
10
9
8
7
6
5
4
3
2
1
90%
80%
70%
60%
50%
40%
30%
20%
10%
42
40
38
36
34
32
30
28
26
24
22
20
18
16
14